Retour au catalogue

STARLINK-31394

ActifCommunicationsVLEO
NORAD 59185·PAYLOAD·🇺🇸 United States

Lancé Mar 10, 2024 depuis Cape Canaveral Space Force Station

Loading…

Prochains Passages (prochaines 24 heures)

TLE

FraisSource: CelesTrak SupGP

Époque: Sep 15, 2026, 02:26 UTC

1 59185C 24045H   26258.10187500  .00014323  00000+0  51864-3 0  2585
2 59185  43.0018  92.3465 0001472 271.3697 355.0448 15.27580875    12

Suivez STARLINK-31394 en temps réel avec AllMySat

Download on the App Store